FW8987 Weather Reports


time (UTC)temp
C
wind
direction
speed
KPH
gust
KPH
rain 1hr
cm
rain 24hr
cm
rain mn
cm
humidity
%
barometer
mb
20260502130551 21 255 12.9 22.5 0.00 0.00 0.00 22 1007.5
20260502123517 21 254 12.9 25.7 0.00 0.00 0.00 24 1007.8
20260502122532 22 233 11.3 27.4 0.00 0.00 0.00 23 1008.0
20260502121527 21 241 11.3 17.7 0.00 0.00 0.00 24 1008.0
20260502120523 21 250 12.9 24.1 0.00 0.00 0.00 26 1008.2
20260502115518 21 244 11.3 22.5 0.00 0.00 0.00 25 1008.3
20260502114533 21 247 12.9 25.7 0.00 0.00 0.00 26 1008.3
20260502113530 21 226 8.0 16.1 0.00 0.00 0.00 27 1008.7
20260502112525 20 237 9.7 17.7 0.00 0.00 0.00 27 1008.7
20260502111540 20 230 11.3 22.5 0.00 0.00 0.00 29 1008.8
20260502110516 20 229 9.7 17.7 0.00 0.00 0.00 30 1008.9
20260502105531 20 240 9.7 17.7 0.00 0.00 0.00 32 1009.0
20260502104527 20 218 8.0 17.7 0.00 0.00 0.00 32 1009.1
20260502103542 19 253 11.3 20.9 0.00 0.00 0.00 33 1009.3
20260502102517 19 228 11.3 22.5 0.00 0.00 0.00 33 1009.1
20260502100547 18 253 11.3 20.9 0.00 0.00 0.00 35 1009.4
20260502091522 17 251 12.9 24.1 0.00 0.00 0.00 39 1009.7
20260502090517 17 259 12.9 24.1 0.00 0.00 0.00 39 1009.7
20260502071524 15 241 8.0 14.5 0.00 0.00 0.00 46 1010.8
20260502070540 15 244 9.7 20.9 0.00 0.00 0.00 46 1010.9
20260502065515 15 248 8.0 14.5 0.00 0.00 0.00 47 1011.0
20260502064531 15 251 11.3 22.5 0.00 0.00 0.00 48 1011.0
20260502063546 14 242 8.0 14.5 0.00 0.00 0.00 49 1011.1
20260502062522 14 250 8.0 16.1 0.00 0.00 0.00 50 1011.0
20260502061517 14 249 9.7 20.9 0.00 0.00 0.00 50 1010.9
20260502060533 13 257 9.7 16.1 0.00 0.00 0.00 51 1010.9
20260502055528 13 256 8.0 12.9 0.00 0.00 0.00 52 1010.9
20260502054523 13 251 6.4 12.9 0.00 0.00 0.00 53 1011.0
20260502053517 13 219 3.2 6.4 0.00 0.00 0.00 55 1011.2
20260502052533 12 244 4.8 9.7 0.00 0.00 0.00 56 1011.2
20260502051528 12 219 3.2 6.4 0.00 0.00 0.00 56 1011.2
20260502050524 12 229 3.2 11.3 0.00 0.00 0.00 57 1011.1
20260502045519 12 216 3.2 9.7 0.00 0.00 0.00 58 1011.2
20260502044534 11 208 1.6 6.4 0.00 0.00 0.00 59 1011.1
20260502043530 11 239 3.2 11.3 0.00 0.00 0.00 60 1011.2
20260502042605 11 224 4.8 9.7 0.00 0.00 0.00 61 1011.3
20260502041520 11 228 1.6 4.8 0.00 0.00 0.00 61 1011.4
20260502040516 11 203 3.2 6.4 0.00 0.00 0.00 61 1011.4
20260502035531 10 209 1.6 4.8 0.00 0.00 0.00 62 1011.5
20260502034526 10 213 0.0 3.2 0.00 0.00 0.00 63 1011.6
20260502033542 10 0.0 0.0 0.00 0.00 0.00 63 1011.6
20260502032516 10 225 0.0 3.2 0.00 0.00 0.00 63 1011.7
20260502031532 10 231 3.2 4.8 0.00 0.00 0.00 61 1011.8
20260502030527 10 231 3.2 9.7 0.00 0.00 0.00 61 1011.8
20260502025523 11 234 3.2 11.3 0.00 0.00 0.00 60 1011.9
20260502024517 11 212 1.6 4.8 0.00 0.00 0.00 60 1012.0
20260502023533 11 242 3.2 12.9 0.00 0.00 0.00 59 1012.1
20260502022528 11 220 4.8 9.7 0.00 0.00 0.00 59 1012.2
20260502021525 11 223 3.2 9.7 0.00 0.00 0.00 58 1012.2
20260502020519 12 223 4.8 11.3 0.00 0.00 0.00 57 1012.3
20260502015535 12 235 6.4 12.9 0.00 0.00 0.00 56 1012.4
20260502014530 12 225 4.8 9.7 0.00 0.00 0.00 57 1012.4
20260502013525 12 231 3.2 9.7 0.00 0.00 0.00 56 1012.6
20260502012520 12 234 4.8 12.9 0.00 0.00 0.00 55 1012.6
20260502011516 12 228 4.8 9.7 0.00 0.00 0.00 54 1012.6
20260502010532 12 221 3.2 9.7 0.00 0.00 0.00 54 1012.6
20260502005526 12 217 3.2 9.7 0.00 0.00 0.00 54 1012.7
20260502004522 12 227 3.2 6.4 0.00 0.00 0.00 54 1012.9
20260502003517 13 227 3.2 9.7 0.00 0.00 0.00 53 1013.0
20260502002533 13 219 3.2 4.8 0.00 0.00 0.00 52 1013.1
20260502001528 13 224 3.2 9.7 0.00 0.00 0.00 51 1013.1
20260502000523 13 234 3.2 11.3 0.00 0.00 0.00 50 1013.1
20260501235519 13 215 3.2 9.7 0.00 0.00 0.00 50 1013.1
20260501234535 14 231 6.4 16.1 0.00 0.00 0.00 49 1013.3
20260501233528 14 234 4.8 11.3 0.00 0.00 0.00 49 1013.3
20260501232524 15 217 3.2 6.4 0.00 0.00 0.00 47 1013.5
20260501231520 15 232 6.4 12.9 0.00 0.00 0.00 46 1013.5
20260501230555 15 230 4.8 12.9 0.00 0.00 0.00 46 1013.6
20260501225530 15 241 4.8 9.7 0.00 0.00 0.00 46 1013.6
20260501224546 15 231 3.2 9.7 0.00 0.00 0.00 44 1013.7
20260501223521 16 213 3.2 12.9 0.00 0.00 0.00 44 1013.6
20260501222517 16 227 6.4 17.7 0.00 0.00 0.00 43 1013.6
20260501221532 16 225 8.0 20.9 0.00 0.00 0.00 43 1013.7
20260501220528 16 228 8.0 20.9 0.00 0.00 0.00 43 1013.6
20260501215523 16 224 4.8 14.5 0.00 0.00 0.00 42 1013.7
20260501214539 17 242 8.0 16.1 0.00 0.00 0.00 41 1013.7
20260501213533 17 236 8.0 20.9 0.00 0.00 0.00 40 1013.8
20260501212529 17 239 8.0 16.1 0.00 0.00 0.00 39 1013.8
20260501211523 17 247 9.7 17.7 0.00 0.00 0.00 39 1013.8
20260501210519 17 212 3.2 4.8 0.00 0.00 0.00 40 1014.1
20260501205535 17 244 8.0 12.9 0.00 0.00 0.00 39 1014.0
20260501204530 17 239 6.4 14.5 0.00 0.00 0.00 38 1014.0
20260501203525 17 223 4.8 9.7 0.00 0.00 0.00 39 1013.9
20260501202521 17 226 3.2 9.7 0.00 0.00 0.00 38 1014.0
20260501201517 17 224 3.2 9.7 0.00 0.00 0.00 38 1014.2
20260501200552 17 202 1.6 4.8 0.00 0.00 0.00 39 1014.2
20260501195528 17 202 1.6 3.2 0.00 0.00 0.00 38 1014.0
20260501194523 17 211 1.6 6.4 0.00 0.00 0.00 37 1014.1
20260501193519 17 205 0.0 3.2 0.00 0.00 0.00 36 1014.2
20260501192554 17 209 1.6 4.8 0.00 0.00 0.00 35 1014.1
20260501191530 18 205 0.0 1.6 0.00 0.00 0.00 35 1014.1
20260501190525 20 201 0.0 3.2 0.00 0.00 0.00 33 1014.0
20260501185520 20 221 1.6 3.2 0.00 0.00 0.00 31 1014.0
20260501184535 21 237 3.2 6.4 0.00 0.00 0.00 30 1013.8
20260501183530 21 255 8.0 12.9 0.00 0.00 0.00 29 1013.8
20260501182525 22 247 8.0 14.5 0.00 0.00 0.00 29 1013.9
20260501181520 22 249 8.0 22.5 0.00 0.00 0.00 28 1013.9
20260501180536 22 242 9.7 20.9 0.00 0.00 0.00 27 1013.9
20260501175531 22 258 9.7 17.7 0.00 0.00 0.00 27 1013.8
20260501174525 23 252 4.8 9.7 0.00 0.00 0.00 26 1014.0
20260501173521 23 255 6.4 14.5 0.00 0.00 0.00 26 1013.9
20260501172516 23 250 8.0 12.9 0.00 0.00 0.00 25 1013.9
20260501171531 23 255 9.7 16.1 0.00 0.00 0.00 24 1014.0
20260501170527 23 258 8.0 16.1 0.00 0.00 0.00 24 1013.9
20260501165522 23 253 8.0 17.7 0.00 0.00 0.00 23 1014.1
20260501164517 24 263 14.5 29.0 0.00 0.00 0.00 22 1014.2
20260501163533 24 252 12.9 27.4 0.00 0.00 0.00 22 1014.2
20260501161602 25 267 12.9 29.0 0.00 0.00 0.00 22 1014.3
20260501160517 25 251 16.1 27.4 0.00 0.00 0.00 22 1014.5
20260501155553 25 267 12.9 24.1 0.00 0.00 0.00 23 1014.5
20260501154528 25 257 12.9 22.5 0.00 0.00 0.00 24 1014.5
20260501153523 25 250 14.5 24.1 0.00 0.00 0.00 24 1014.6
20260501152519 25 249 9.7 16.1 0.00 0.00 0.00 25 1014.7
20260501151534 25 245 9.7 16.1 0.00 0.00 0.00 24 1014.8
20260501150530 25 238 8.0 16.1 0.00 0.00 0.00 24 1015.0
20260501145545 25 236 11.3 22.5 0.00 0.00 0.00 25 1015.0
20260501144520 25 250 11.3 17.7 0.00 0.00 0.00 25 1015.2
20260501143516 25 250 8.0 22.5 0.00 0.00 0.00 26 1015.3
20260501142712 25 264 8.0 12.9 0.00 0.00 0.00 26 1015.5